Current weather by "City, St" or "zip code"  
 

Current Conditions: Paso Robles Municipal Airport, CA

Fair


77.0 F

Last Updated on Jul 3 2022, 12:53 pm PDT
Humidity: 24%
Wind Speed: N 8.1 mph
Barometer 29.95 in
Dewpoint: 37.0 F
Visibility: 10.00 mi
Precip: --
Heat Index: NA
Wind Chill: NA
Current conditions at:

Paso Robles Municipal Airport, CA (KPRB)

Lat: 35.66941 Lon: 120.62912

Local Radar Image active severe weather and emergency alerts image image weather storm and storm spotter reports image weather observation monitoring service image
Local
Radar
Active
Alerts
Storm Reports Obs
Monitoring

Sign-up For Email & Text Message Weather Alert Notification Services



Advertise Here

Observation History for Paso Robles Municipal Airport, CA


Time Wind
(mph)
Vis
(mi)
Weather Precip (in) Temperature (F) Relative
Humidity
Wind
Chill
(F)
Heat
Index
(F)
Pressure
Air Dwpt altimeter
(in)
sea level
(mb)
Rmks
12:53 pm PDT N 8.1 10.00 Fair -- 77.0 37.0 24% NA NA 29.95 1013.7
11:53 am PDT W 10.4 10.00 Fair -- 72.0 44.1 37% NA NA 29.97 1014.3
10:53 am PDT NW 12.7 G 18.4 10.00 Fair -- 67.0 46.0 47% NA NA 29.98 1014.8
9:53 am PDT NW 10.4 10.00 Fair -- 62.0 46.9 58% 61 NA 29.98 1014.9
8:53 am PDT N 8.1 10.00 Fair -- 59.0 46.9 64% 58 NA 29.99 1015.2
7:53 am PDT NW 10.4 10.00 Mostly Cloudy -- 56.0 48.0 75% 53 NA 30.00 1015.3
6:53 am PDT NW 9.2 10.00 Overcast -- 54.0 46.9 77% 51 NA 29.99 1015.1
5:53 am PDT N 11.5 10.00 Overcast -- 54.0 46.9 77% 51 NA 29.98 1014.8
4:53 am PDT NW 10.4 10.00 Overcast -- 54.0 48.0 80% 51 NA 29.98 1014.6
3:53 am PDT NW 6.9 10.00 Overcast -- 54.0 48.0 80% 52 NA 29.98 1014.6
2:53 am PDT NW 10.4 10.00 A Few Clouds -- 53.0 46.9 80% 50 NA 29.97 1014.4
1:53 am PDT NW 13.8 10.00 Fair -- 54.0 46.9 77% 50 NA 29.97 1014.1
12:53 am PDT NW 13.8 10.00 Fair -- 54.0 48.0 80% 50 NA 29.97 1014.2
11:53 pm PDT NW 16.1 10.00 Fair -- 55.0 48.0 77% 51 NA 29.96 1014.1
10:53 pm PDT W 17.3 10.00 Fair -- 57.0 48.0 72% 53 NA 29.96 1014.1
9:53 pm PDT W 19.6 10.00 Fair -- 60.0 48.0 65% 57 NA 29.94 1013.5
8:53 pm PDT W 15.0 10.00 Fair -- 64.0 48.0 56% NA NA 29.93 1013.0
7:53 pm PDT W 12.7 10.00 Fair -- 70.0 48.0 46% NA NA 29.91 1012.4
6:53 pm PDT SW 9.2 10.00 Fair -- 74.0 46.9 38% NA NA 29.89 1011.6
5:53 pm PDT S 12.7 10.00 Fair -- 77.0 46.9 35% NA NA 29.89 1011.5
4:53 pm PDT S 17.3 10.00 Fair -- 79.0 46.9 32% NA NA 29.89 1011.7
3:53 pm PDT SW 17.3 10.00 Fair -- 80.0 46.9 31% NA 79 29.90 1011.9
2:53 pm PDT S 15.0 10.00 Fair -- 83.0 46.9 28% NA 81 29.91 1012.1
1:53 pm PDT NW 8.1 10.00 Fair -- 83.0 39.0 21% NA 81 29.93 1012.7

Regional Weather Observation


San Luis Obispo, San Luis Obispo County-Mc Chesney Field, CA (KSBP)

Fair
72.0 F

Oceano County Airport, CA (KL52)

Fair
61.0 F

Salinas, Salinas Municipal Airport, CA (KSNS)

Mostly Cloudy
66.0 F

Monterey Regional Airport, CA (KMRY)

Mostly Cloudy
62.0 F

Lemoore Naval Air Station - Reeves Field, CA (KNLC)

Fair
81.0 F

Hollister, CA, CA (KCVH)

Fair
70.0 F

Advertise Here


Advertise Here